Home   Weather   Wiluna   Past weeks
Flag for Australia

Past Weather in Wiluna, Western Australia, Australia — Yesterday and Last 2 Weeks

Now
74 °F

Mild.


Feels Like: 76 °F
Forecast: 78 / 53 °F
Wind: 9 mph from East

Location: Leonora Leinster Aerodrome Aws

Current Time: Apr 26, 2019 at 5:54:43 pm

Latest Report: Apr 26, 2019 at 5:00 pm


Visibility: N/A

Pressure: 30.15 "Hg (28.39 "Hg at 521m altitude)

Humidity: 27%

Dew Point: 38 °F

Location of WilunaLocation

Past Weather in Wiluna — Graph

°F

Wiluna Temperature Yesterday

Maximum temperature yesterday: 80 °F (at 3:00 pm)
Minimum temperature yesterday: 53 °F (at 6:00 am)
Average temperature yesterday: 67 °F

High & Low Weather Summary for the Past Weeks

 TemperatureHumidityPressure
High99 °F (Apr 11, 3:00 pm)100% (Apr 14, 2:00 pm)30.26 "Hg (Apr 14, 2:00 pm)
Low44 °F (Apr 21, 6:00 am)13% (Apr 11, 3:00 pm)29.78 "Hg (Apr 19, 3:00 am)
Average67 °F54%30.04 "Hg
* Reported Apr 11 3:00 pm — Apr 26 3:00 pm, Wiluna. Weather by CustomWeather, © 2019

Note: Actual official high and low records may vary slightly from our data, if they occured in-between our weather recording intervals... More about our weather records

Advertising

Wiluna Weather History for the Previous 24 Hours

Scroll right to see more
 ConditionsComfort  
Time TempWeatherWind HumidityBarometerVisibility
3:00 pm
Fri, Apr 26
76 °FMild.10 mph31%30.13 "HgN/A
2:00 pm75 °FMild.14 mph31%30.15 "HgN/A
12:00 pm72 °FMild.13 mph42%30.20 "HgN/A
11:00 am70 °FMild.12 mph45%30.23 "HgN/A
9:00 am64 °FMild.12 mph57%30.26 "HgN/A
8:00 am61 °FCool.13 mph63%30.25 "HgN/A
6:00 am54 °FCool.6 mph75%30.21 "HgN/A
5:00 am56 °FCool.8 mph69%30.20 "HgN/A
3:00 am58 °FCool.6 mph62%30.18 "HgN/A
2:00 am57 °FCool.6 mph60%30.18 "HgN/A
12:00 am62 °FRefreshingly cool.6 mph45%30.19 "HgN/A
11:00 pm
Thu, Apr 25
65 °FMild.9 mph40%30.20 "HgN/A
9:00 pm65 °FMild.6 mph41%30.19 "HgN/A
8:00 pm69 °FMild.8 mph37%30.17 "HgN/A
6:00 pm74 °FMild.8 mph28%30.14 "HgN/A
5:00 pm78 °FPleasantly warm.10 mph25%30.12 "HgN/A
Weather by CustomWeather, © 2019

See weather overview